| time (UTC) | temp F | wind direction | speed knots | gust knots | rain 1hr in | rain 24hr in | rain mn in | humidity % | barometer mb |
| 20260505011530 | 62 | 346 | 7.8 | 16.5 | 0.00 | 0.00 | 0.00 | 42 | 1011.2 |
| 20260505010022 | 62 | 350 | 11.3 | 15.6 | 0.00 | 0.00 | 0.00 | 41 | 1011.1 |
| 20260505003027 | 63 | 339 | 8.7 | 15.6 | 0.00 | 0.00 | 0.00 | 42 | 1011.1 |
| 20260505001514 | 62 | 337 | 10.4 | 18.2 | 0.00 | 0.00 | 0.00 | 41 | 1011.0 |
| 20260505000012 | 63 | 348 | 8.7 | 13.0 | 0.00 | 0.00 | 0.00 | 42 | 1010.9 |
| 20260504234527 | 63 | 13 | 10.4 | 15.6 | 0.00 | 0.00 | 0.00 | 40 | 1010.8 |
| 20260504233024 | 64 | 349 | 8.7 | 17.4 | 0.00 | 0.00 | 0.00 | 40 | 1010.7 |
| 20260504231525 | 65 | 21 | 8.7 | 14.8 | 0.00 | 0.00 | 0.00 | 41 | 1010.7 |
| 20260504230023 | 65 | 28 | 9.6 | 16.5 | 0.00 | 0.00 | 0.00 | 39 | 1010.6 |
| 20260504224521 | 66 | 22 | 11.3 | 15.6 | 0.00 | 0.00 | 0.00 | 38 | 1010.7 |
| 20260504223020 | 66 | 351 | 9.6 | 14.8 | 0.00 | 0.00 | 0.00 | 40 | 1010.7 |
| 20260504221526 | 66 | 9 | 8.7 | 14.8 | 0.00 | 0.00 | 0.00 | 37 | 1010.8 |
| 20260504220016 | 66 | 350 | 8.7 | 13.9 | 0.00 | 0.00 | 0.00 | 38 | 1010.9 |
| 20260504214526 | 65 | 345 | 8.7 | 14.8 | 0.00 | 0.00 | 0.00 | 40 | 1011.1 |
| 20260504213029 | 65 | 352 | 7.8 | 13.9 | 0.00 | 0.00 | 0.00 | 39 | 1011.3 |
| 20260504211534 | 65 | 340 | 7.0 | 17.4 | 0.00 | 0.00 | 0.00 | 38 | 1011.4 |
| 20260504210026 | 65 | 5 | 9.6 | 12.2 | 0.00 | 0.00 | 0.00 | 41 | 1011.6 |
| 20260504204524 | 64 | 350 | 7.0 | 12.2 | 0.00 | 0.00 | 0.00 | 44 | 1011.5 |
| 20260504203021 | 64 | 17 | 7.8 | 13.0 | 0.00 | 0.00 | 0.00 | 40 | 1011.7 |
| 20260504200021 | 63 | 59 | 5.2 | 8.7 | 0.00 | 0.00 | 0.00 | 41 | 1011.9 |
| 20260504193026 | 62 | 352 | 4.3 | 7.8 | 0.00 | 0.00 | 0.00 | 43 | 1012.3 |
| 20260504191528 | 61 | 9 | 2.6 | 8.7 | 0.00 | 0.00 | 0.00 | 45 | 1012.6 |
| 20260504190028 | 61 | 5 | 6.1 | 9.6 | 0.00 | 0.00 | 0.00 | 44 | 1012.7 |
| 20260504184541 | 60 | 34 | 6.1 | 8.7 | 0.00 | 0.00 | 0.00 | 46 | 1012.8 |
| 20260504181524 | 59 | 351 | 4.3 | 8.7 | 0.00 | 0.00 | 0.00 | 49 | 1013.1 |
| 20260504174520 | 57 | 26 | 7.8 | 10.4 | 0.00 | 0.00 | 0.00 | 53 | 1013.4 |
| 20260504173017 | 57 | 352 | 5.2 | 8.7 | 0.00 | 0.00 | 0.00 | 52 | 1013.6 |
| 20260504171513 | 57 | 13 | 5.2 | 9.6 | 0.00 | 0.00 | 0.00 | 50 | 1013.6 |
| 20260504081515 | 52 | 142 | 3.5 | 9.6 | 0.00 | 0.00 | 0.00 | 51 | 1012.4 |
| 20260504050014 | 55 | 130 | 8.7 | 12.2 | 0.00 | 0.00 | 0.00 | 47 | 1012.3 |
| 20260504044527 | 56 | 127 | 9.6 | 12.2 | 0.00 | 0.00 | 0.00 | 46 | 1012.3 |
| 20260504043029 | 58 | 113 | 6.1 | 10.4 | 0.00 | 0.00 | 0.00 | 44 | 1012.3 |
| 20260504041532 | 59 | 182 | 3.5 | 7.8 | 0.00 | 0.00 | 0.00 | 41 | 1012.1 |
| 20260504040022 | 61 | 146 | 4.3 | 6.1 | 0.00 | 0.00 | 0.00 | 39 | 1011.9 |
| 20260504034520 | 62 | 199 | 0.9 | 4.3 | 0.00 | 0.00 | 0.00 | 37 | 1011.8 |
| 20260504033016 | 63 | 263 | 2.6 | 3.5 | 0.00 | 0.00 | 0.00 | 35 | 1011.6 |
| 20260504031513 | 64 | 249 | 2.6 | 4.3 | 0.00 | 0.00 | 0.00 | 34 | 1011.5 |
| 20260504030009 | 65 | 251 | 0.9 | 1.7 | 0.00 | 0.00 | 0.00 | 34 | 1011.4 |
| 20260504024528 | 66 | 229 | 0.9 | 2.6 | 0.00 | 0.00 | 0.00 | 32 | 1011.2 |
| 20260504023027 | 67 | 283 | 1.7 | 2.6 | 0.00 | 0.00 | 0.00 | 31 | 1011.3 |
| 20260504021530 | 68 | 251 | 0.9 | 5.2 | 0.00 | 0.00 | 0.00 | 30 | 1011.1 |
| 20260504020022 | 69 | 315 | 2.6 | 6.1 | 0.00 | 0.00 | 0.00 | 29 | 1011.1 |
| 20260504014527 | 70 | 281 | 1.7 | 5.2 | 0.00 | 0.00 | 0.00 | 29 | 1011.2 |
| 20260504013019 | 72 | 280 | 2.6 | 5.2 | 0.00 | 0.00 | 0.00 | 27 | 1011.3 |